Hourly Data Report for October 14, 2013

All times are specified in Local Standard Time (LST). Add 1 hour to adjust for Daylight Saving Time where and when it is observed.

POND INLET A
NUNAVUT

72°41'22.000" N
77°58'08.000" W
61.60 m
2403206
71095
YIO

Download Data

Hourly Data (October 2013)
Hourly Data Report for October 14, 2013
Temp Definition
°C
Dew Point Temp Definition
°C
Rel Hum Definition
%
Wind Dir Definition
10's deg

Wind Spd Definition
km/h
Visibility Definition
km
Stn Press Definition
kPa
Hmdx Definition


Wind Chill Definition


Weather Definition


TIME
00:00 Legend Double Dagger 0.3 -4.2 72 7 24 16.1 100.36     LegendNANA
01:00 Legend Double Dagger 0.0 -4.3 73 9 15 16.1 100.36   -4 LegendNANA
02:00 Legend Double Dagger -0.6 -4.9 73   0 16.1 100.38     LegendNANA
03:00 Legend Double Dagger -3.0 -7.1 74 12 5 16.1 100.37   -5 LegendNANA
04:00 Legend Double Dagger 0.3 -5.5 65 9 21 16.1 100.34     LegendNANA
05:00 Legend Double Dagger 1.1 -5.0 64 9 22 16.1 100.36     LegendNANA
06:00 Legend Double Dagger 0.7 -4.6 68 9 26 16.1 100.38     LegendNANA
07:00 Legend Double Dagger 0.7 -4.5 68 8 22 16.1 100.40     LegendNANA
08:00 Legend Double Dagger -0.3 -4.9 71 8 15 16.1 100.40   -5 LegendNANA
09:00 Legend Double Dagger 0.1 -4.4 72 7 21 16.1 100.39     LegendNANA
10:00 Legend Double Dagger 0.3 -3.9 74 6 26 16.1 100.35     LegendNANA
11:00 Legend Double Dagger 0.3 -4.5 70 6 9 16.1 100.40     LegendNANA
12:00 Legend Double Dagger -0.6 -4.7 74 LegendMM 4 16.1 100.42   -2 LegendNANA
13:00 Legend Double Dagger 0.1 -4.7 70 8 9 16.1 100.46     LegendNANA
14:00 Legend Double Dagger 0.3 -4.4 71 7 18 16.1 100.48     LegendNANA
15:00 Legend Double Dagger 0.0 -4.1 74 6 30 16.1 100.47   -6 LegendNANA
16:00 Legend Double Dagger 0.4 -4.0 72 6 24 16.1 100.51     LegendNANA
17:00 Legend Double Dagger 0.3 -3.8 74 7 22 16.1 100.49     LegendNANA
18:00 Legend Double Dagger 0.0 -3.4 78 LegendMM 22 16.1 100.47   -6 LegendNANA
19:00 Legend Double Dagger 0.1 -3.6 76 6 26 16.1 100.45     LegendNANA
20:00 Legend Double Dagger 0.6 -4.1 71 6 18 16.1 100.48     LegendNANA
21:00 Legend Double Dagger 0.1 -4.5 71 10 8 16.1 100.49     LegendNANA
22:00 Legend Double Dagger 0.4 -4.4 70 7 18 16.1 100.47     LegendNANA
23:00 Legend Double Dagger -1.2 -3.1 87 5 30 16.1 100.43   -8 LegendNANA

Notes on Data Quality.

Legend

  • E = Estimated
  • M = Missing
  • NA = Not Available
  • ‡ = Partner data that is not subject to review by the National Climate Archives
Date modified: